Hauptseite
METAR-TAF:

METAR-TAF

Flughäfen :

Hohenfels, Deutschland

Breite: 49-13N, Länge: 011-50E, Höhe: 442 m

Beobachtung

Neuester Wetterbericht von vor 46 Minuten, um 12:56 UTC
Wind 8 kt aus West/Nordwest
Temperatur 27°C
Luftfeuchtigkeit 37%
Luftdruck 1015 hPa
Sichtweite 10 km oder mehr
Himmel klar

METAR: ETIH 171256Z AUTO 29008KT 9999 CLR 27/11 A2996 RMK AO2 SLP132 T02730113 $

Zeit: 15:42 (13:42 UTC)


TAF: fehlend

Wetterbeobachtungen und Prognosen von mehr als 4000 Flughäfen (METAR und TAF Bericht).

Die verfügbaren Stationen werden durch gelbe und rote Markierungen auf der Karte dargestellt.

Führen Sie die Maus auf sie, um den Namen der Station zu sehen.

Darauf klicken, um die Beobachtung von Wetterbeobachtungen und Prognosen zu sehen.

Um die Karte zu ändern : klicken Sie auf den grünen Tasten mit einem schwarzen Kreuz Zum Vergrößern, auf den grünen Button mit einem Gedankenstrich zu verkleinern, oder auf die grünen Pfeile für benachbarte Karten.


METAR-TAF: